Temp
-15 -15 -16 -16 -16 -16 -16 -16 -16 -17 -17 -17 -18 -18 -18 -18 -18 -18 -17 -17 -18 -18 -18 -18 -18 -17 -17 -17 -18 -18 -18 -19 -19 -19 -19 -19 -19 -19 -20 -20 -19 -19 -19
-15 -16 -16 -16 -16 -16 -17 -17 -17 -17 -18 -18 -18 -18 -18 -18 -18 -18 -18 -18 -18 -18 -18 -18 -18 -18 -18 -18 -18 -19 -19 -20 -20 -20 -19 -21 -23 -24 -24 -25 -25 -24 -23
-16 -16 -16 -16 -17 -17 -17 -17 -17 -18 -18 -18 -19 -19 -19 -18 -18 -18 -18 -18 -18 -18 -18 -18 -18 -18 -19 -19 -19 -20 -20 -20 -21 -22 -24 -26 -26 -27 -27 -27 -27 -26 -27
-16 -16 -16 -17 -17 -17 -17 -18 -18 -18 -18 -19 -19 -19 -19 -19 -19 -19 -19 -19 -19 -19 -19 -19 -19 -19 -19 -20 -20 -20 -21 -22 -25 -26 -27 -28 -30 -30 -29 -28 -28 -29 -28
-16 -17 -17 -17 -17 -17 -18 -18 -18 -18 -19 -19 -19 -19 -19 -19 -19 -19 -19 -19 -19 -19 -19 -20 -20 -20 -20 -21 -21 -21 -24 -26 -28 -30 -31 -32 -33 -32 -32 -30 -29 -30 -29
-16 -17 -17 -17 -18 -18 -18 -18 -19 -19 -19 -19 -20 -20 -19 -19 -19 -19 -19 -19 -20 -20 -20 -20 -21 -21 -21 -21 -22 -25 -28 -29 -30 -33 -35 -34 -33 -33 -33 -32 -31 -30 -30
-17 -17 -17 -17 -18 -18 -18 -19 -19 -19 -20 -20 -20 -20 -20 -20 -20 -20 -20 -20 -20 -20 -21 -21 -21 -22 -22 -22 -24 -28 -30 -31 -34 -35 -35 -35 -34 -34 -34 -33 -32 -31 -31
-17 -17 -18 -18 -18 -18 -19 -19 -20 -20 -20 -20 -20 -20 -20 -20 -20 -20 -20 -20 -21 -21 -21 -21 -22 -22 -22 -23 -26 -29 -30 -32 -34 -36 -36 -35 -35 -34 -34 -34 -33 -32 -31
-17 -18 -18 -18 -18 -19 -19 -20 -20 -20 -20 -20 -21 -21 -21 -20 -20 -21 -21 -21 -21 -22 -22 -22 -22 -23 -23 -25 -28 -30 -31 -32 -35 -36 -36 -36 -35 -34 -34 -34 -34 -33 -32
-18 -18 -18 -18 -19 -19 -19 -20 -20 -20 -20 -21 -21 -21 -21 -21 -21 -21 -21 -21 -22 -22 -22 -23 -23 -24 -25 -27 -30 -31 -31 -33 -35 -36 -36 -36 -35 -35 -34 -34 -34 -33 -32
-18 -18 -19 -19 -19 -19 -20 -20 -20 -20 -21 -21 -21 -21 -21 -21 -21 -22 -22 -22 -22 -22 -23 -23 -24 -25 -27 -29 -31 -32 -32 -34 -36 -36 -36 -36 -36 -35 -35 -34 -34 -33 -33
-18 -19 -19 -19 -19 -20 -20 -20 -21 -21 -21 -21 -21 -22 -21 -21 -22 -22 -22 -22 -23 -23 -23 -23 -24 -25 -28 -30 -31 -32 -33 -35 -36 -37 -37 -36 -36 -36 -36 -35 -35 -35 -34
-19 -19 -19 -19 -19 -20 -20 -20 -21 -21 -21 -21 -22 -22 -22 -22 -22 -23 -23 -23 -23 -23 -24 -24 -24 -25 -28 -30 -32 -32 -33 -34 -36 -37 -36 -36 -36 -36 -36 -36 -35 -35 -35
-19 -19 -19 -19 -19 -20 -20 -21 -21 -21 -21 -22 -22 -22 -22 -22 -22 -23 -23 -23 -24 -24 -24 -24 -25 -26 -29 -31 -32 -33 -33 -34 -36 -37 -36 -36 -36 -37 -36 -36 -36 -35 -35
-19 -19 -20 -20 -20 -20 -21 -21 -21 -22 -22 -22 -22 -22 -22 -22 -23 -23 -23 -23 -24 -24 -24 -25 -25 -27 -29 -32 -33 -33 -33 -34 -36 -37 -37 -36 -36 -36 -36 -36 -36 -35 -35
-20 -20 -20 -20 -20 -21 -21 -21 -22 -22 -22 -22 -22 -22 -22 -22 -23 -23 -24 -24 -24 -25 -25 -25 -25 -27 -29 -31 -33 -34 -34 -34 -35 -36 -36 -36 -36 -36 -36 -36 -36 -35 -35
-20 -20 -20 -21 -21 -21 -22 -22 -22 -22 -22 -22 -23 -23 -23 -23 -23 -24 -24 -25 -25 -25 -25 -25 -26 -27 -29 -31 -33 -33 -34 -34 -35 -36 -36 -36 -36 -36 -36 -36 -36 -36 -35
-20 -20 -21 -21 -21 -22 -22 -22 -23 -23 -23 -23 -23 -23 -23 -24 -24 -24 -25 -25 -25 -26 -26 -26 -26 -28 -29 -31 -33 -33 -34 -34 -35 -35 -36 -36 -36 -36 -36 -36 -35 -35 -35
-21 -21 -21 -22 -22 -22 -22 -23 -23 -23 -23 -23 -24 -24 -24 -24 -25 -25 -25 -25 -26 -26 -26 -26 -27 -28 -30 -31 -33 -33 -34 -34 -34 -35 -36 -36 -35 -36 -35 -35 -35 -35 -35
-21 -21 -21 -22 -22 -23 -23 -23 -23 -23 -23 -23 -24 -24 -24 -25 -25 -26 -26 -26 -26 -26 -26 -27 -27 -28 -30 -31 -33 -33 -34 -34 -34 -35 -35 -36 -36 -35 -35 -35 -35 -35 -35
-21 -22 -22 -22 -23 -23 -23 -23 -23 -23 -23 -24 -24 -24 -24 -25 -25 -26 -26 -26 -26 -26 -26 -27 -27 -28 -30 -32 -33 -34 -34 -34 -34 -35 -35 -35 -36 -35 -35 -35 -35 -34 -34
-22 -22 -22 -22 -23 -23 -23 -23 -23 -23 -24 -24 -24 -24 -25 -25 -26 -26 -26 -26 -27 -27 -27 -27 -28 -29 -30 -32 -33 -34 -34 -34 -34 -35 -35 -35 -35 -35 -35 -35 -34 -34 -34
-22 -22 -22 -23 -23 -23 -23 -23 -23 -24 -24 -24 -24 -25 -25 -26 -26 -26 -27 -27 -27 -27 -27 -27 -28 -29 -30 -32 -33 -34 -34 -34 -35 -35 -35 -35 -35 -35 -35 -34 -34 -34 -34
-22 -22 -23 -23 -23 -23 -23 -23 -24 -24 -24 -24 -25 -25 -26 -26 -26 -27 -27 -27 -27 -28 -28 -28 -28 -29 -31 -32 -34 -34 -34 -34 -35 -35 -35 -36 -35 -35 -35 -34 -34 -34 -34
-22 -23 -23 -23 -23 -23 -23 -24 -24 -24 -24 -25 -25 -26 -26 -27 -27 -27 -27 -27 -28 -28 -28 -28 -29 -30 -31 -33 -34 -35 -35 -35 -35 -35 -35 -36 -36 -35 -35 -35 -34 -34 -34
-22 -23 -23 -23 -23 -23 -24 -24 -24 -24 -25 -25 -26 -26 -27 -27 -27 -27 -27 -28 -28 -28 -28 -29 -29 -30 -32 -33 -34 -35 -35 -35 -35 -35 -35 -36 -36 -36 -35 -35 -35 -34 -34
Height
5767 5762 5757 5752 5746 5740 5734 5727 5721 5715 5709 5703 5697 5692 5687 5682 5676 5670 5663 5656 5649 5641 5633 5626 5618 5609 5600 5591 5581 5569 5558 5542 5532 5537 5506 5493 5484 5482 5484 5485 5488 5492 5503
5760 5754 5749 5743 5737 5731 5724 5718 5711 5705 5699 5693 5687 5681 5676 5669 5663 5657 5650 5642 5634 5626 5617 5608 5599 5590 5579 5568 5556 5541 5527 5511 5492 5484 5475 5446 5433 5430 5430 5436 5441 5446 5457
5751 5746 5740 5734 5728 5721 5715 5709 5702 5696 5690 5683 5677 5671 5664 5658 5650 5643 5635 5627 5617 5609 5600 5591 5581 5570 5558 5545 5529 5513 5496 5477 5456 5437 5427 5405 5393 5389 5387 5392 5400 5410 5419
5742 5737 5731 5725 5719 5713 5706 5699 5693 5686 5679 5673 5667 5660 5653 5646 5638 5630 5621 5612 5603 5594 5584 5573 5562 5549 5535 5520 5503 5483 5464 5445 5423 5403 5388 5374 5365 5359 5352 5356 5365 5372 5385
5734 5728 5722 5716 5710 5703 5697 5690 5683 5677 5670 5663 5656 5649 5642 5634 5626 5617 5608 5599 5589 5578 5567 5554 5541 5527 5511 5492 5475 5456 5433 5415 5395 5376 5363 5353 5346 5336 5328 5327 5330 5341 5353
5726 5719 5713 5707 5700 5693 5686 5680 5673 5666 5659 5652 5645 5638 5631 5622 5614 5605 5595 5585 5574 5563 5550 5536 5521 5507 5491 5471 5449 5426 5407 5389 5374 5356 5346 5336 5330 5319 5310 5307 5306 5316 5331
5716 5710 5703 5697 5690 5683 5676 5669 5662 5655 5649 5641 5634 5627 5619 5610 5601 5592 5581 5570 5558 5546 5533 5519 5503 5487 5471 5454 5434 5412 5392 5372 5355 5343 5331 5325 5312 5303 5294 5291 5288 5294 5307
5706 5699 5693 5687 5681 5674 5666 5659 5651 5645 5638 5630 5623 5616 5607 5598 5589 5578 5568 5555 5542 5529 5517 5503 5487 5469 5450 5432 5416 5400 5383 5363 5350 5339 5325 5311 5301 5290 5281 5276 5274 5278 5289
5696 5690 5684 5677 5671 5664 5656 5649 5642 5634 5627 5619 5612 5604 5595 5585 5576 5565 5554 5541 5527 5513 5500 5484 5469 5451 5433 5415 5397 5383 5368 5353 5343 5331 5318 5304 5293 5282 5272 5266 5264 5269 5282
5685 5679 5673 5667 5660 5652 5646 5638 5631 5623 5615 5607 5599 5592 5583 5573 5563 5551 5540 5529 5516 5501 5484 5467 5449 5433 5415 5398 5382 5368 5355 5340 5329 5322 5312 5301 5288 5277 5268 5263 5262 5267 5275
5675 5668 5662 5656 5649 5642 5635 5627 5620 5612 5603 5595 5588 5579 5570 5560 5549 5538 5527 5515 5503 5489 5473 5456 5437 5418 5400 5385 5371 5358 5342 5328 5321 5313 5305 5296 5286 5276 5268 5264 5263 5266 5272
5664 5658 5652 5645 5638 5631 5624 5616 5609 5601 5592 5583 5575 5566 5557 5547 5537 5526 5514 5501 5488 5475 5461 5445 5427 5408 5391 5375 5363 5351 5337 5324 5316 5309 5302 5294 5286 5277 5271 5266 5265 5266 5270
5653 5647 5641 5634 5627 5620 5612 5605 5598 5590 5581 5572 5564 5554 5545 5535 5524 5513 5501 5488 5475 5460 5445 5430 5414 5397 5381 5366 5353 5342 5331 5320 5312 5306 5299 5292 5285 5278 5273 5270 5267 5268 5270
5642 5636 5629 5623 5616 5608 5601 5593 5586 5578 5570 5561 5553 5543 5533 5523 5512 5501 5490 5477 5463 5448 5434 5418 5401 5384 5369 5357 5345 5334 5323 5313 5306 5302 5296 5289 5284 5279 5274 5271 5268 5269 5270
5631 5625 5618 5611 5604 5596 5589 5582 5575 5567 5559 5550 5541 5533 5523 5512 5501 5489 5478 5466 5453 5439 5424 5408 5392 5375 5360 5347 5335 5325 5316 5307 5300 5296 5293 5288 5283 5277 5274 5271 5268 5268 5269
5619 5613 5607 5600 5592 5585 5578 5571 5564 5556 5548 5539 5530 5521 5511 5501 5490 5478 5465 5452 5439 5426 5412 5398 5382 5366 5353 5341 5331 5321 5311 5302 5295 5291 5289 5285 5281 5276 5272 5270 5268 5267 5267
5608 5602 5595 5588 5581 5574 5567 5559 5551 5543 5535 5527 5518 5509 5499 5489 5478 5467 5454 5440 5428 5416 5402 5387 5372 5357 5344 5332 5323 5315 5306 5297 5289 5284 5283 5281 5278 5274 5271 5268 5267 5265 5265
5597 5590 5583 5576 5570 5563 5556 5548 5541 5533 5523 5515 5506 5498 5487 5477 5466 5456 5444 5431 5418 5403 5390 5376 5361 5347 5334 5323 5315 5307 5299 5291 5283 5277 5275 5275 5274 5272 5269 5267 5265 5264 5264
5584 5577 5571 5565 5559 5552 5545 5538 5530 5522 5513 5504 5496 5486 5476 5465 5454 5444 5432 5421 5408 5395 5381 5366 5352 5338 5325 5314 5306 5299 5292 5285 5277 5270 5267 5267 5268 5268 5266 5265 5264 5263 5263
5572 5566 5560 5554 5548 5541 5534 5527 5520 5511 5503 5494 5486 5476 5465 5455 5443 5431 5420 5409 5396 5384 5370 5356 5342 5328 5315 5305 5297 5290 5284 5278 5272 5265 5260 5260 5261 5262 5262 5262 5262 5262 5262
5560 5555 5550 5544 5537 5531 5524 5517 5508 5500 5492 5483 5474 5465 5456 5446 5434 5423 5411 5400 5388 5376 5362 5348 5333 5319 5306 5296 5288 5282 5276 5271 5266 5259 5254 5252 5254 5255 5257 5258 5259 5259 5261
5550 5545 5539 5533 5527 5520 5514 5506 5498 5490 5481 5473 5463 5454 5444 5434 5423 5412 5401 5389 5377 5364 5352 5339 5324 5310 5298 5287 5279 5274 5268 5264 5259 5254 5248 5245 5246 5248 5250 5252 5254 5256 5258
5540 5534 5528 5523 5517 5510 5503 5495 5487 5479 5471 5462 5453 5443 5433 5423 5412 5401 5390 5378 5366 5353 5341 5328 5314 5300 5287 5277 5270 5265 5261 5256 5252 5247 5242 5238 5237 5240 5243 5246 5248 5251 5253
5529 5524 5519 5513 5507 5500 5492 5485 5477 5469 5461 5452 5443 5433 5423 5413 5402 5391 5380 5368 5355 5342 5330 5316 5303 5290 5278 5268 5260 5255 5251 5248 5245 5241 5236 5232 5229 5231 5234 5237 5241 5244 5248
5519 5514 5509 5503 5497 5490 5482 5474 5466 5459 5450 5442 5433 5423 5413 5403 5392 5381 5370 5358 5346 5332 5318 5305 5292 5280 5268 5259 5251 5246 5242 5239 5236 5233 5229 5225 5222 5220 5224 5228 5232 5237 5241
5509 5505 5499 5493 5486 5479 5472 5464 5457 5448 5440 5431 5422 5412 5403 5392 5382 5371 5360 5348 5335 5322 5308 5295 5282 5270 5259 5249 5242 5237 5233 5230 5228 5225 5222 5218 5215 5212 5213 5218 5223 5228 5232
Wind_Speed
39 40 43 44 45 45 45 46 48 48 45 44 44 45 45 46 48 51 54 56 57 59 60 62 65 68 72 76 81 85 89 94 97 93 101 104 106 104 99 100 102 101 99
41 42 44 45 46 46 47 47 48 47 46 45 45 47 48 49 50 53 55 57 58 60 62 65 68 72 76 80 85 90 93 96 100 101 101 102 97 92 89 85 87 91 92
43 44 45 47 47 47 48 48 47 45 46 46 47 48 50 51 52 54 56 58 60 62 65 68 72 75 79 84 88 91 94 97 99 99 90 86 83 79 78 76 79 83 84
45 45 47 47 47 48 47 47 47 46 47 48 48 49 51 51 52 54 57 59 61 64 67 71 74 78 82 87 89 93 95 95 90 86 78 71 64 60 64 66 69 76 82
45 46 48 48 47 48 47 46 47 48 48 48 49 51 53 52 53 56 59 61 63 66 70 73 77 80 84 88 91 92 91 85 80 73 66 62 58 53 52 54 61 68 77
46 48 49 48 48 48 47 47 47 49 50 49 49 52 54 53 55 57 60 62 65 68 71 75 78 80 84 87 89 87 83 79 70 60 61 62 55 51 46 46 52 62 69
47 49 48 49 49 47 47 46 47 50 51 50 50 53 55 54 56 59 62 65 67 70 73 75 78 81 84 86 84 78 75 70 59 55 58 53 52 47 43 40 44 54 62
49 48 48 49 48 47 47 47 48 50 51 51 52 54 56 56 58 61 64 66 69 71 74 76 78 81 84 84 79 73 70 63 52 48 51 49 45 42 39 35 37 47 55
49 48 49 48 47 47 49 49 49 52 53 53 53 54 57 58 60 62 65 67 69 72 74 77 79 80 82 80 73 69 68 59 47 44 44 49 44 36 33 28 29 39 45
49 49 49 50 48 49 50 50 50 52 54 54 54 55 58 59 61 64 66 67 69 71 75 78 79 79 78 73 67 66 66 56 47 39 38 43 40 32 26 21 20 27 35
50 50 51 51 50 50 51 51 51 53 55 55 54 56 58 59 61 65 66 67 69 71 74 76 77 76 72 66 62 62 63 53 45 37 37 39 34 30 22 15 12 19 27
51 51 51 51 51 51 51 51 51 54 55 55 54 56 58 60 62 65 66 68 70 72 74 75 75 75 69 62 59 58 58 47 41 34 31 35 30 26 22 15 8 11 19
52 52 52 52 51 52 52 51 52 55 55 54 54 56 58 60 63 65 66 67 70 72 74 74 74 73 67 59 56 56 54 44 36 31 27 29 28 23 19 14 8 7 14
51 51 52 51 52 53 51 51 53 55 55 54 54 55 57 60 63 64 65 66 69 71 73 73 74 72 64 54 52 52 52 44 33 27 25 29 23 18 18 13 9 8 13
51 51 51 52 53 52 50 51 54 54 54 53 54 55 56 60 62 64 65 66 69 71 71 72 72 70 61 51 49 50 50 46 30 27 25 25 23 17 13 13 9 7 13
51 52 53 53 54 51 50 52 54 54 54 53 53 54 57 60 62 63 64 66 69 71 71 71 71 69 61 49 43 45 47 44 30 26 22 22 22 16 12 9 8 4 9
53 53 53 53 51 49 51 53 53 55 55 53 53 54 57 59 61 62 64 66 69 69 70 71 71 69 61 49 42 40 42 43 37 25 24 20 20 16 11 9 8 8 7
54 53 52 50 49 49 51 52 53 54 53 53 53 54 57 59 61 62 63 66 68 69 70 70 70 68 61 50 40 38 40 42 37 25 23 23 19 17 13 9 7 5 4
52 50 48 47 48 50 51 52 53 53 52 51 52 54 57 59 61 62 64 66 67 68 69 70 70 67 60 50 40 36 37 37 37 32 22 21 21 18 14 10 7 6 6
47 46 45 46 48 50 51 51 52 52 51 51 51 54 56 58 60 62 64 65 66 68 69 70 69 67 59 50 39 35 35 35 37 31 22 22 21 19 15 12 9 6 5
44 43 45 46 48 50 49 51 51 50 50 50 52 55 57 58 60 61 63 65 65 67 68 69 69 66 59 49 39 34 32 33 32 31 26 21 22 22 16 15 14 12 10
41 42 44 46 48 47 49 50 50 49 49 49 53 56 57 58 60 62 63 64 66 68 68 69 69 66 59 49 38 32 31 31 31 31 26 19 24 25 21 17 18 17 17
40 42 44 46 45 47 50 50 48 48 48 50 54 56 57 58 60 62 63 64 67 68 69 70 69 65 59 49 39 31 29 28 28 28 27 22 23 26 28 23 22 23 22
40 43 45 43 45 48 49 48 47 48 49 52 54 55 57 58 60 61 62 64 67 69 70 71 70 66 58 49 38 31 29 27 27 27 26 23 19 29 30 30 26 26 25
40 43 41 43 47 48 47 47 48 48 51 53 54 55 57 59 60 61 62 65 68 69 71 72 71 66 58 48 37 30 28 26 25 25 25 25 21 22 32 33 33 28 26
41 40 42 45 47 46 46 47 48 49 52 54 55 56 57 59 60 61 63 66 68 69 72 73 71 66 57 47 37 29 27 26 25 25 25 23 22 19 29 32 36 35 29
Wind_Direction
318 317 316 314 315 317 320 320 320 320 319 314 311 310 309 308 308 308 309 311 311 311 310 309 308 307 307 307 307 305 304 303 301 299 295 290 285 279 272 266 260 255 249
315 316 315 315 315 318 321 321 321 322 320 316 314 314 314 314 314 314 313 313 313 313 311 310 310 310 310 309 309 307 307 306 303 301 297 291 285 279 271 262 255 250 245
315 316 315 315 316 319 320 320 322 322 320 317 316 317 317 317 317 317 316 315 315 314 313 312 312 312 311 311 312 311 310 309 308 304 299 293 287 280 270 261 252 245 243
315 315 314 315 317 318 319 320 321 321 319 316 316 317 317 318 318 318 318 318 317 316 315 315 315 315 316 316 315 315 314 314 311 307 304 299 297 289 276 262 249 242 235
314 313 313 315 317 317 318 320 321 320 317 316 316 317 318 318 319 320 320 319 318 318 317 318 319 320 320 320 320 319 318 318 315 311 309 307 305 298 287 266 249 238 234
312 312 313 314 317 317 318 319 321 320 318 315 315 316 317 318 319 321 320 320 320 320 321 322 323 323 323 324 323 322 321 321 319 315 309 307 307 304 294 275 254 237 231
311 312 312 314 316 316 317 318 320 320 317 315 315 315 317 318 320 321 322 322 322 323 324 325 325 325 326 327 326 325 325 324 320 317 312 317 313 309 300 282 259 236 230
311 311 312 314 315 316 317 317 319 319 317 315 314 315 317 318 320 323 323 323 325 326 327 327 327 328 329 329 327 327 327 326 321 316 317 325 321 313 301 287 261 236 229
310 310 312 314 316 318 317 315 317 318 317 315 314 316 317 318 321 323 325 326 328 328 328 328 329 331 331 330 327 329 331 328 323 319 328 332 328 317 303 289 261 235 228
310 310 311 313 315 317 316 314 315 317 317 315 314 316 318 320 322 325 325 327 328 329 330 330 332 333 332 329 328 330 333 329 326 324 335 334 334 330 317 303 264 234 229
309 308 311 312 316 316 314 315 315 316 316 314 315 317 320 322 324 325 326 328 330 331 331 332 333 334 332 329 328 332 335 331 325 326 336 337 337 341 334 320 276 245 230
307 308 310 312 314 314 314 314 314 316 315 314 316 319 321 324 325 326 328 329 331 332 332 334 335 335 333 328 328 333 337 329 323 325 330 336 337 342 344 336 302 243 223
306 307 309 311 313 314 314 314 314 315 314 315 317 320 323 325 326 327 328 331 333 333 334 335 336 336 334 329 328 333 338 330 321 321 325 336 330 342 339 331 306 241 225
305 306 309 312 314 314 313 313 313 313 314 316 318 320 324 326 327 328 329 332 333 334 335 336 337 337 334 328 326 332 337 334 316 314 323 332 332 330 341 329 304 249 220
305 307 309 311 313 312 311 312 313 313 315 317 318 321 324 326 328 329 330 332 333 334 336 337 338 338 334 328 326 331 337 335 312 303 312 320 325 320 322 340 316 264 231
306 308 310 311 312 310 310 311 312 313 315 316 318 321 324 327 329 330 331 332 334 335 336 337 338 338 335 329 324 327 333 333 317 295 294 312 316 324 314 310 335 317 242
307 309 310 309 309 308 309 311 312 314 316 317 320 322 325 328 330 330 331 333 334 336 336 338 339 339 336 330 324 324 329 335 330 290 279 288 307 314 319 314 303 293 263
307 309 308 308 307 308 310 311 313 315 316 318 320 322 326 328 329 330 332 333 335 336 337 338 339 338 337 331 323 323 327 334 331 308 278 269 284 298 298 297 296 288 252
308 306 307 307 307 309 310 312 314 315 317 318 320 324 327 328 329 330 332 333 335 336 337 338 339 338 336 330 323 320 325 329 333 326 276 268 261 281 285 273 268 263 261
305 306 306 307 308 309 310 313 315 315 317 319 321 325 327 328 328 330 332 334 335 336 337 338 339 338 336 330 322 319 321 326 334 329 299 264 258 259 271 253 237 226 226
304 305 306 307 308 310 311 314 314 316 318 319 322 325 326 327 327 330 332 333 335 336 337 338 338 338 336 330 322 317 316 324 327 330 322 261 255 247 248 239 224 213 202
303 304 305 307 309 310 313 313 314 317 318 320 323 325 325 326 328 330 332 334 334 336 337 338 338 338 336 330 322 314 312 319 323 330 325 290 249 244 236 232 227 218 210
302 304 306 309 309 312 312 313 315 317 319 321 323 324 325 327 328 331 333 334 335 335 336 338 339 338 336 331 322 313 310 312 319 320 326 315 254 244 235 229 228 224 221
302 305 308 308 310 311 313 314 316 318 319 321 323 324 325 327 329 331 333 334 335 335 336 338 339 338 336 331 322 311 309 307 316 318 319 315 290 241 238 229 227 231 231
304 307 306 309 310 312 313 314 317 318 319 321 323 324 326 328 329 331 333 334 334 335 336 338 339 338 336 331 322 310 306 304 308 314 315 316 303 258 236 233 226 228 232
305 304 307 309 312 313 314 316 317 318 320 321 323 325 327 328 330 332 333 333 334 335 336 337 338 337 335 331 322 310 303 303 303 312 313 310 309 287 239 233 228 225 228